Wind_Speed
10 10 10 8 10 11 13 16 17 17 18 18 19 19 19 18 20 21 22 26 27 26 27 26 24 24 22 22 20 18 17 15 14 11 10 11 11 11 11 10 9 8 7 7 7 8 10 9 8 7 6 6 6 6 6 6 7 7 6 6 6 6 6
9 10 9 9 9 11 13 16 16 16 18 18 17 18 19 18 21 23 23 26 28 27 27 27 26 25 24 23 22 20 19 17 16 13 11 11 10 11 11 10 9 8 6 6 6 6 7 8 7 6 5 5 5 5 6 6 7 7 6 6 6 6 7
9 8 9 10 9 10 12 14 15 16 16 16 17 18 19 21 23 25 25 26 27 25 26 27 27 26 25 24 23 22 21 19 18 15 12 10 9 9 10 10 9 8 7 7 6 6 6 7 7 6 5 5 4 5 5 6 6 6 6 7 6 7 7
8 7 8 9 9 10 12 14 15 16 16 17 18 19 21 22 23 23 25 25 25 26 26 27 26 26 26 25 23 23 22 21 19 17 13 10 9 9 10 10 9 8 8 7 7 7 7 6 6 6 5 5 5 5 5 6 6 6 7 7 7 7 7
8 7 6 7 7 7 9 13 15 16 16 16 18 17 18 19 19 20 22 23 23 24 25 25 24 24 25 25 23 22 23 22 20 18 15 12 10 10 10 10 9 8 8 7 7 7 7 6 6 6 5 5 5 5 6 6 7 7 7 7 7 7 7
8 7 5 5 6 6 7 10 13 15 16 16 17 17 16 17 18 19 20 21 20 19 20 22 23 25 25 24 23 22 22 22 21 19 16 14 11 10 11 11 10 9 8 7 7 6 6 7 7 6 5 5 5 6 6 6 7 7 7 7 8 8 7
7 6 6 5 5 6 7 8 10 12 13 14 15 15 15 17 18 18 18 19 20 19 19 21 23 25 25 24 23 22 21 21 21 19 17 15 14 12 12 12 11 10 9 8 8 7 6 6 7 6 6 6 6 6 6 6 7 8 8 8 9 9 9
5 5 5 5 5 6 7 8 9 10 11 12 13 14 16 16 16 17 17 18 19 18 19 21 22 23 24 24 23 22 19 18 19 19 18 16 15 14 13 14 14 12 10 9 9 8 8 7 7 7 6 7 7 7 7 7 7 8 9 9 10 10 9
5 4 4 5 5 5 7 7 8 9 10 12 14 16 17 18 17 18 19 21 21 20 21 22 22 21 22 23 22 20 18 17 17 18 17 17 17 16 14 14 15 15 12 10 9 9 9 9 8 8 7 8 8 7 7 8 8 9 9 9 10 10 10
6 6 6 5 5 5 7 8 7 8 9 11 13 16 18 20 20 20 21 22 21 21 21 21 21 20 20 21 20 19 18 17 16 15 16 16 16 16 15 13 14 16 15 11 9 9 9 9 9 9 9 9 9 9 9 9 9 10 10 10 10 10 10
7 7 6 5 5 6 7 8 8 8 9 11 13 16 20 21 21 21 22 21 20 20 19 18 18 18 17 17 18 18 18 16 14 14 15 16 15 15 15 12 12 14 15 13 10 9 9 10 10 10 10 10 10 11 11 10 10 11 11 11 11 11 11
6 6 7 7 6 7 8 8 10 10 10 11 12 14 17 19 19 19 19 19 18 17 15 14 14 13 13 13 13 15 17 16 15 14 14 14 14 13 13 13 12 12 13 14 13 11 10 10 11 12 12 12 12 12 12 11 12 12 12 12 12 12 12
6 5 6 7 6 6 7 8 10 12 12 11 10 10 11 12 13 14 17 17 15 11 10 11 12 10 9 9 9 10 13 13 13 13 12 13 13 12 11 10 10 10 11 12 13 13 12 12 12 14 14 14 14 13 12 12 12 13 14 13 14 14 14
7 7 7 6 6 7 8 9 9 11 12 11 11 11 11 11 11 12 13 12 10 8 8 10 13 13 10 9 7 8 10 10 11 13 15 15 15 14 11 9 10 11 11 11 11 12 12 12 12 12 13 14 14 13 12 12 12 13 13 14 14 15 15
8 8 8 8 6 7 9 9 9 11 12 11 12 14 14 13 11 11 10 10 10 11 9 8 12 14 13 10 7 7 9 10 12 15 16 16 15 14 13 12 12 12 12 12 11 11 11 12 12 11 11 12 13 13 12 13 13 12 12 13 14 15 15
9 8 8 8 7 7 8 9 10 12 11 11 13 14 13 12 11 11 11 10 11 12 10 8 11 11 10 10 10 11 11 11 12 15 17 17 16 15 15 15 14 12 13 13 13 13 14 14 15 13 11 12 12 12 12 13 13 13 12 12 13 13 14
10 9 8 9 9 8 8 8 9 10 10 11 13 15 14 12 11 11 12 11 11 12 10 10 10 8 8 11 13 15 14 13 14 15 15 15 16 16 16 16 16 15 15 13 13 14 14 14 15 14 13 12 12 12 12 11 12 14 14 13 12 12 11
10 10 9 9 10 9 9 10 11 12 13 15 16 16 14 12 11 12 14 15 16 17 13 9 7 7 7 9 11 12 14 14 14 13 12 13 13 13 14 15 17 17 17 15 14 13 12 12 13 14 13 12 12 10 8 8 12 15 15 15 14 12 11
10 10 10 9 10 11 12 13 14 14 15 17 20 20 19 18 17 17 18 19 20 21 18 14 12 12 12 9 7 6 8 10 10 9 9 9 10 9 9 10 11 13 14 14 15 13 11 10 11 12 12 10 9 7 4 5 9 11 12 13 13 13 12
11 11 11 10 10 12 14 16 17 17 18 20 22 22 24 24 25 24 24 23 23 23 22 21 19 18 15 13 12 10 10 10 9 8 7 7 7 6 6 6 5 6 6 7 8 9 9 9 9 10 10 9 8 6 4 6 9 9 9 10 11 11 12
11 12 11 9 9 11 15 17 17 17 21 24 24 24 26 28 29 28 25 24 25 25 23 22 22 20 18 17 15 14 13 13 13 11 10 8 7 8 8 7 6 6 5 4 4 4 5 6 6 6 7 7 7 5 5 9 13 12 12 13 12 11 11
12 12 12 11 10 11 14 17 17 17 20 24 26 26 28 30 31 29 27 26 26 26 24 23 22 21 20 19 17 15 13 12 13 13 12 10 8 8 9 9 8 7 6 5 3 2 2 2 2 3 4 4 5 5 5 7 10 12 13 14 14 13 12
13 14 15 15 14 15 16 16 19 20 22 24 26 26 28 30 31 31 29 27 26 26 26 24 21 20 20 20 19 17 15 14 12 12 12 10 9 9 10 9 9 9 9 8 8 7 7 6 5 3 3 3 5 6 5 2 2 4 6 8 9 9 9
14 15 15 15 16 17 17 17 20 24 26 26 26 26 27 28 28 29 27 24 24 25 25 22 20 19 20 20 19 19 18 17 15 13 11 9 8 9 10 10 9 10 11 12 13 14 13 11 10 8 7 7 7 7 5 5 4 3 3 3 3 3 3
13 14 14 15 15 16 18 21 24 25 26 26 25 25 25 25 26 27 26 23 22 23 22 21 20 20 20 19 19 19 19 19 18 15 12 11 11 11 11 12 11 11 12 14 14 14 13 11 11 9 7 7 7 5 4 4 2 2 3 4 3 2 1
12 13 14 15 16 17 20 23 23 21 22 24 23 22 22 22 23 25 24 22 22 21 20 20 20 19 18 18 18 18 18 19 19 18 16 16 15 15 14 14 14 14 14 14 14 13 12 12 12 11 9 7 7 6 6 6 4 3 3 3 3 2 2
13 14 14 15 16 18 19 21 21 20 20 21 21 20 19 19 20 20 19 19 18 17 16 17 17 16 16 16 16 16 16 17 18 18 18 18 18 17 17 17 17 16 16 15 14 13 11 10 11 11 10 9 8 8 8 7 6 5 4 5 5 4 4
13 14 15 15 17 17 18 18 18 19 18 18 17 17 15 17 18 17 16 16 15 13 13 14 14 14 14 14 14 14 14 14 15 15 15 15 16 16 16 16 16 17 17 17 17 16 13 11 9 9 10 10 10 10 9 8 9 9 9 9 9 8 8
12 13 15 15 16 16 17 17 15 15 14 13 14 14 13 15 16 15 15 15 14 12 12 12 11 11 12 13 13 13 12 12 12 12 13 12 12 13 13 13 13 14 15 16 16 15 13 12 9 8 9 10 11 11 10 10 11 11 11 11 11 10 9
12 12 13 14 14 16 18 17 15 14 13 13 13 13 12 13 15 15 14 14 13 12 12 11 10 10 10 11 11 11 11 11 10 11 11 11 11 11 11 11 11 11 12 12 12 11 11 10 9 9 9 9 10 11 12 11 11 11 11 11 11 11 11
14 12 13 13 14 15 17 17 16 15 14 13 13 13 12 12 13 14 14 13 12 11 10 10 10 11 10 10 10 9 9 9 9 9 9 9 9 9 9 9 9 10 10 9 9 9 9 9 9 9 9 9 9 10 11 11 11 11 11 11 11 11 11
18 15 14 14 14 15 16 16 16 15 14 13 13 12 12 11 11 13 13 11 10 9 8 9 10 11 10 10 8 7 7 6 7 7 7 7 7 7 7 7 7 8 9 8 8 8 8 8 8 8 8 8 8 8 10 11 12 12 12 11 12 12 11
18 17 17 17 17 18 16 14 14 13 13 13 12 11 10 10 9 10 10 9 8 7 7 7 8 9 9 8 7 6 6 5 5 5 5 5 5 6 6 6 6 7 7 7 7 7 7 7 7 6 6 7 7 7 8 10 12 13 13 12 12 12 12
16 18 19 20 20 18 15 13 12 12 12 12 12 11 10 10 9 8 7 7 6 6 7 8 8 8 7 6 6 6 5 5 5 4 4 5 5 5 5 5 5 6 7 7 7 6 6 6 6 6 6 5 5 6 6 7 9 11 12 11 11 11 11
11 14 18 21 21 19 16 15 13 12 12 12 12 12 12 11 10 9 8 8 7 7 8 9 8 7 6 6 5 5 5 4 4 4 4 5 5 6 7 6 5 6 7 7 7 6 5 5 5 5 5 5 5 5 5 5 7 9 9 10 10 9 9
12 14 17 19 19 19 18 18 16 15 15 15 14 13 13 13 12 11 10 10 9 9 9 9 8 7 6 5 5 5 5 5 5 5 5 5 6 7 8 9 8 7 7 7 7 6 6 5 5 5 5 6 6 5 5 5 6 7 7 8 8 8 9
19 21 22 20 17 16 17 17 17 17 18 17 15 14 14 13 13 12 11 10 10 9 9 8 7 6 6 5 5 5 5 5 6 6 6 6 6 7 8 8 8 7 6 5 5 5 5 5 5 5 6 7 6 5 5 5 5 5 6 7 7 7 7
20 22 25 24 21 19 18 18 16 16 18 17 15 13 14 13 13 12 11 10 9 8 8 7 7 7 6 6 6 5 5 5 6 6 6 6 6 5 5 5 4 5 5 5 5 5 5 6 6 6 7 8 7 5 4 4 4 4 5 5 5 6 6
Wind_Direction
183 184 185 185 186 187 190 190 188 186 185 188 189 189 191 191 192 195 198 204 207 209 212 212 211 210 211 211 212 214 217 222 225 229 236 237 236 236 235 230 222 218 215 215 219 217 212 207 203 203 202 202 200 198 197 199 199 199 206 214 222 228 234
182 185 182 182 187 189 191 190 188 188 188 189 187 186 189 191 195 197 199 204 207 208 211 212 212 212 213 214 216 217 219 222 225 229 236 240 240 239 239 238 234 231 227 225 230 228 220 215 212 210 209 212 214 211 208 207 206 209 217 223 229 236 242
177 181 179 181 187 187 186 185 187 191 191 188 186 187 191 195 198 200 201 204 205 206 209 211 212 213 214 217 218 219 221 222 223 227 232 237 237 237 239 240 238 236 237 237 239 239 231 223 220 220 221 226 227 223 221 221 221 223 227 231 236 244 249
164 169 173 181 186 185 183 184 187 191 193 193 191 191 195 197 198 200 203 205 204 206 209 211 212 213 215 218 220 221 222 221 222 225 228 230 233 235 235 234 233 233 240 246 246 243 239 231 226 227 234 241 242 238 233 232 233 235 238 240 244 251 256
154 154 159 173 180 182 185 189 191 192 193 195 193 193 195 195 194 197 203 206 206 208 211 211 211 214 218 220 221 223 223 222 221 223 226 227 230 234 230 228 229 235 245 252 250 243 237 233 232 236 242 247 250 250 247 244 243 242 244 246 251 257 259
154 150 147 156 165 171 183 192 195 196 196 196 196 195 195 193 192 195 201 205 205 205 208 209 212 216 220 221 222 225 225 223 221 222 225 226 229 233 232 231 234 239 246 252 252 245 235 233 236 242 246 245 244 247 252 254 250 249 252 254 257 260 259
149 146 144 144 152 164 174 184 192 197 198 195 194 195 196 196 194 193 197 203 205 204 205 208 212 217 220 221 223 227 226 223 222 223 225 227 230 234 236 239 241 243 247 249 250 249 243 239 240 245 246 245 244 249 257 259 255 255 259 262 265 268 268
142 149 152 152 158 163 167 175 185 192 193 190 189 193 197 198 193 190 194 201 205 204 206 210 212 215 218 219 223 226 225 223 223 225 227 228 231 234 237 242 245 247 250 253 251 251 250 247 246 248 248 247 250 253 256 259 260 263 269 271 273 272 269
151 163 170 167 165 156 153 162 173 181 183 185 188 193 198 199 195 192 198 205 207 207 211 214 214 215 218 220 222 225 225 225 226 228 229 229 232 235 237 241 246 248 251 252 251 254 254 251 250 253 254 253 256 256 254 256 258 263 272 276 276 273 267
162 173 179 176 162 147 148 155 161 170 175 178 186 194 200 202 200 199 203 208 209 209 214 217 217 218 220 221 223 224 225 227 226 227 228 229 233 237 238 240 244 249 251 249 247 249 252 252 253 257 259 259 261 262 261 261 260 262 266 271 273 272 271
161 169 171 164 156 156 160 160 159 163 170 176 183 192 199 202 201 201 204 209 211 211 215 218 217 218 220 223 225 227 229 228 224 224 228 230 233 239 243 243 242 246 248 246 243 243 246 248 251 256 258 261 265 267 267 267 266 265 266 268 272 274 273
151 159 164 162 162 165 165 167 165 166 176 182 182 185 192 196 196 195 198 205 210 209 209 213 216 216 216 220 225 231 235 234 229 227 229 231 233 237 242 242 241 243 244 244 245 245 245 246 248 254 258 261 266 270 270 270 270 271 271 270 271 274 276
130 137 153 155 155 156 160 170 170 171 179 179 172 169 172 176 177 179 187 194 197 192 186 194 202 200 200 208 218 228 234 234 231 229 227 230 234 235 236 238 237 238 238 239 243 245 246 247 249 255 260 262 264 266 268 271 274 276 277 274 272 274 277
131 134 136 132 147 164 166 169 169 171 173 166 157 153 153 157 159 161 168 170 165 159 155 173 189 191 189 193 203 216 223 224 225 229 233 237 241 239 235 234 235 237 238 238 240 243 245 247 248 252 256 257 259 261 263 270 277 280 281 279 277 276 277
144 140 130 125 144 166 169 171 169 169 167 154 144 141 143 149 148 141 137 127 126 131 130 157 192 203 203 198 196 209 220 221 222 228 232 233 236 236 236 238 239 240 240 239 239 241 242 246 248 250 250 251 256 258 259 266 273 278 283 285 283 281 279
152 142 133 131 136 141 153 164 165 165 164 151 140 135 133 134 133 125 118 110 117 129 139 175 201 207 204 202 206 213 217 218 221 225 226 225 226 228 231 234 234 234 237 238 239 240 244 249 251 250 250 249 251 251 251 257 264 269 277 281 282 281 278
146 138 133 132 130 125 125 130 131 135 136 132 129 125 118 117 115 110 105 101 112 132 159 199 209 199 194 205 216 219 219 222 226 229 229 228 228 229 231 234 235 235 237 238 238 239 243 247 248 247 247 247 248 247 244 245 252 258 264 269 271 272 272
133 130 133 133 129 122 115 108 103 104 107 110 112 110 108 109 104 97 95 97 108 126 146 171 172 147 151 183 208 218 221 223 228 233 235 233 232 233 233 235 237 238 239 239 239 240 238 239 242 243 242 243 245 247 245 241 247 254 259 263 267 269 268
127 124 128 126 119 114 108 101 95 90 90 96 100 103 106 106 98 91 93 98 106 116 122 121 115 112 115 129 152 177 193 199 204 209 216 221 224 223 221 223 229 233 236 238 239 238 236 237 239 239 237 237 238 239 242 245 252 258 261 263 268 271 271
122 120 119 112 107 107 103 98 93 86 85 90 95 100 104 102 98 96 98 102 103 105 107 107 106 106 106 110 113 115 125 138 144 143 149 163 172 171 172 180 190 202 212 224 230 231 232 234 237 240 240 242 246 249 251 254 258 263 263 262 266 271 275
120 120 115 105 102 104 103 102 100 96 96 98 99 101 102 101 101 101 100 101 101 100 100 100 98 97 97 101 105 109 113 119 121 118 114 118 125 128 134 141 147 160 173 186 201 215 225 225 229 236 237 238 242 245 250 257 262 264 264 264 264 266 273
127 126 121 118 112 105 105 108 109 107 106 105 104 104 103 103 105 104 100 100 100 99 99 97 93 93 95 97 101 105 109 114 118 118 116 115 113 114 116 117 118 125 134 142 157 181 208 213 216 224 225 224 219 210 220 252 267 268 265 264 263 263 268
127 126 123 122 118 112 111 115 117 117 114 111 109 107 105 106 107 106 103 102 100 98 97 95 92 92 92 91 93 96 98 101 103 106 112 116 115 115 116 112 109 110 112 110 107 106 107 103 105 124 140 142 153 165 170 152 355 305 279 272 266 261 263
117 118 117 117 119 118 117 116 117 118 117 114 111 109 108 108 108 105 102 99 98 96 93 91 89 89 87 85 85 86 88 91 94 97 101 105 106 109 110 108 107 109 110 107 102 99 98 98 100 104 102 102 116 131 128 101 68 19 360 351 313 272 261
109 112 111 112 116 118 117 117 117 116 114 111 108 108 108 108 106 103 98 94 95 93 89 89 91 92 90 87 87 89 88 87 91 96 100 101 102 104 104 102 102 103 101 99 96 94 93 95 99 100 95 90 101 111 104 93 70 354 2 8 5 24 38
114 116 114 113 114 114 116 118 116 110 109 109 108 109 109 107 103 100 96 94 91 87 86 89 93 95 95 92 91 92 90 87 88 92 99 103 104 104 104 102 100 98 95 93 91 88 90 94 95 96 96 94 92 85 73 70 60 22 353 339 341 21 59
118 117 115 115 116 115 114 114 111 106 105 108 110 110 109 107 102 96 92 91 86 81 85 92 95 96 97 95 93 91 90 89 88 90 95 100 102 100 97 95 95 95 97 99 99 95 96 98 96 96 99 101 100 92 81 74 66 51 33 15 7 13 33
121 117 115 114 114 113 110 106 104 102 102 106 110 110 109 109 104 96 92 89 84 85 91 94 95 96 95 94 94 93 92 92 91 91 91 93 96 95 92 90 91 94 99 105 108 108 107 106 100 96 92 90 92 92 87 77 65 53 43 37 30 21 20
125 119 117 115 115 115 111 104 98 97 99 106 112 111 112 113 108 101 97 94 92 96 98 96 98 100 98 97 96 97 99 98 97 95 91 88 88 88 87 86 87 91 99 105 107 106 103 99 96 89 79 72 69 67 64 60 53 44 40 40 38 33 31
118 118 120 118 117 118 115 110 104 101 102 108 115 116 116 114 111 106 103 101 102 101 98 97 101 102 101 102 101 101 104 107 110 108 100 92 88 86 85 86 86 89 95 98 99 97 91 85 79 72 65 59 54 51 50 49 46 40 35 35 35 34 36
131 129 125 122 122 123 120 116 114 110 106 107 112 115 113 113 111 108 107 109 108 103 99 98 99 98 98 99 101 101 102 107 115 119 115 105 96 91 90 88 88 91 93 91 89 86 80 73 69 65 61 56 51 46 45 47 48 43 38 36 35 34 33
141 138 130 127 129 129 126 122 120 117 113 111 112 112 112 113 112 108 108 111 108 102 99 97 95 94 92 90 92 93 95 99 104 112 120 117 106 99 96 90 87 89 90 86 82 78 73 69 64 62 61 60 58 53 50 52 54 52 50 48 47 45 42
143 141 136 137 140 139 136 131 127 125 123 120 118 116 115 118 118 115 116 117 109 103 101 98 95 91 85 81 79 78 79 84 87 94 108 116 115 111 103 93 87 86 82 77 75 72 70 68 66 64 65 68 69 67 60 56 54 54 55 54 52 50 47
143 141 140 143 147 150 146 140 136 136 133 127 124 123 122 122 125 129 135 134 127 123 118 111 103 93 82 76 75 73 72 77 81 85 95 104 114 118 109 97 89 84 79 74 69 67 69 71 69 67 69 78 83 77 69 61 53 50 50 49 47 45 42
139 139 142 148 155 159 157 150 146 143 138 135 134 133 131 130 131 134 140 143 142 138 130 121 112 101 91 84 80 79 80 85 90 97 106 113 117 113 106 104 103 96 90 84 78 76 79 83 83 79 81 89 91 81 71 63 52 46 45 43 40 38 37
154 146 147 153 159 163 164 162 159 156 151 149 149 145 140 138 138 137 136 139 141 138 130 123 117 110 105 100 95 93 94 98 103 105 113 127 132 119 107 102 101 100 98 91 84 81 84 91 98 101 103 104 99 92 86 73 56 45 41 40 36 32 29
168 159 157 160 166 169 166 163 165 165 162 161 159 154 148 145 143 142 140 139 140 138 133 130 128 125 123 120 118 117 114 113 113 114 116 123 132 133 126 115 104 97 92 88 92 98 102 108 111 115 123 125 114 98 84 72 57 43 39 37 33 27 23
174 167 164 168 176 179 172 168 170 172 169 168 165 159 152 149 147 147 145 143 141 139 138 140 140 136 135 135 132 132 132 128 126 126 128 129 131 138 145 147 139 122 100 89 99 112 120 126 127 126 133 136 128 111 90 73 59 44 38 36 29 22 17
Height
810 812 813 815 816 818 820 822 824 827 830 833 835 838 840 842 843 845 847 849 851 853 855 857 858 860 861 863 865 866 868 869 871 872 873 874 875 876 877 878 879 880 881 882 883 883 884 885 885 886 887 887 888 888 889 890 891 891 892 893 894 895 896
810 811 812 814 815 816 818 820 823 826 828 831 834 837 839 840 842 844 845 848 850 852 854 856 857 859 860 862 863 865 867 868 870 871 872 873 874 875 876 877 878 879 880 881 882 883 883 884 885 886 886 887 887 888 889 890 890 891 892 893 894 895 895
810 810 810 812 813 815 817 819 822 824 827 830 832 835 837 838 840 842 844 846 849 851 853 855 856 858 860 861 862 864 865 867 869 870 871 872 873 874 875 876 877 878 880 880 881 882 883 884 885 885 886 887 887 888 889 890 890 891 892 893 894 894 895
809 809 809 811 812 813 816 818 820 823 825 828 830 833 834 836 838 841 843 845 847 849 851 853 855 857 859 860 861 863 864 866 868 869 870 871 872 873 874 875 877 878 879 880 881 882 882 883 884 885 886 886 887 888 889 889 890 891 892 893 893 894 894
809 809 810 812 812 814 816 817 819 821 824 826 828 831 833 835 838 840 842 844 845 848 849 852 854 856 858 859 861 862 863 865 866 868 869 870 871 872 873 875 876 877 878 879 880 881 882 883 883 884 885 886 887 887 888 889 890 891 891 892 893 893 894
809 810 811 812 813 815 815 817 819 820 822 825 827 830 832 834 837 838 841 843 845 847 848 851 853 854 856 858 860 861 862 864 865 867 868 869 871 872 873 874 875 876 877 878 879 880 881 882 882 883 884 885 886 887 888 889 889 890 891 891 892 892 893
809 810 811 812 813 814 815 817 818 819 822 824 826 829 831 833 835 837 840 842 843 846 847 849 851 852 854 856 858 860 861 863 864 866 867 868 870 871 872 873 874 875 876 877 878 879 880 881 881 882 883 884 885 886 887 888 889 889 890 890 891 891 891
810 811 811 812 812 813 814 816 817 819 821 823 825 828 829 832 834 836 839 840 842 844 846 848 850 851 853 855 857 859 861 862 863 864 866 867 869 870 871 872 873 874 875 876 877 878 879 880 881 881 882 883 884 885 886 886 887 888 889 889 889 890 890
809 811 812 812 812 813 815 816 817 819 820 822 824 826 827 829 832 834 837 839 841 842 844 846 848 850 852 854 856 858 860 861 862 863 865 866 867 868 870 871 872 873 874 875 876 877 878 879 880 881 881 882 883 883 884 885 886 886 887 887 888 888 889
809 811 813 813 813 814 815 816 818 819 820 822 823 824 826 827 830 832 835 837 839 841 842 844 847 849 851 852 854 856 858 859 861 862 864 865 866 867 868 870 870 871 873 874 875 876 877 878 879 880 880 881 882 882 883 883 884 885 885 886 886 887 888
810 812 814 814 815 815 815 816 818 819 820 821 821 822 824 825 828 831 833 836 838 840 842 844 846 848 850 852 853 855 856 858 860 861 862 863 864 865 867 868 869 870 871 873 874 875 876 877 878 879 879 880 881 881 882 882 883 883 884 884 885 885 886
811 812 814 816 816 816 816 817 818 819 820 820 820 821 822 824 827 829 832 835 837 840 842 844 846 848 849 851 852 854 855 856 858 859 860 861 863 864 865 867 868 869 870 871 872 874 875 876 876 877 878 879 879 880 880 881 881 882 882 883 883 884 884
812 813 814 815 816 817 817 817 818 819 820 820 820 821 823 824 826 828 831 833 836 839 841 843 845 847 849 850 852 853 854 855 856 857 858 859 861 862 864 865 866 867 868 869 870 872 873 874 875 875 876 877 877 878 878 879 879 880 880 881 881 882 882
814 815 815 816 817 817 817 817 818 819 820 820 821 822 823 825 827 828 830 833 836 838 840 841 843 845 846 848 850 852 853 853 854 855 856 857 859 860 862 863 864 865 866 867 868 870 871 872 873 873 874 874 875 876 876 877 877 877 878 879 879 880 880
813 815 816 817 818 817 816 817 817 819 820 821 822 823 823 825 827 829 831 833 836 837 839 841 842 843 844 846 848 850 851 852 852 853 854 855 856 858 859 861 862 863 864 865 866 867 868 869 870 871 872 872 873 873 874 874 874 875 875 876 877 878 878
813 815 816 817 818 817 817 816 817 819 820 822 823 823 824 825 827 829 831 833 835 836 837 839 841 843 845 845 846 848 850 851 851 852 853 853 854 855 857 858 860 861 862 863 864 865 865 866 867 868 869 870 871 871 871 872 872 872 873 873 874 875 876
814 816 817 817 818 818 817 817 818 819 820 822 823 823 824 825 827 829 830 832 834 835 836 837 840 843 845 845 845 846 848 849 849 850 851 852 853 853 854 856 858 859 860 861 862 862 863 864 864 865 867 868 869 869 869 870 870 869 870 870 871 872 873
816 817 818 818 818 818 818 819 820 820 821 822 823 824 825 826 828 830 831 832 834 835 836 837 839 842 844 844 844 844 845 846 847 848 849 850 851 851 852 854 855 857 858 859 860 861 861 862 862 863 864 865 866 867 868 868 867 867 867 867 868 869 869
817 818 819 819 819 819 820 821 822 823 824 824 824 825 826 827 829 831 832 834 835 837 838 839 841 842 843 843 843 843 843 845 846 847 848 848 849 849 850 852 853 854 856 857 858 859 860 860 861 861 862 863 864 866 867 867 865 865 865 865 865 866 866
818 820 820 820 821 822 822 823 824 825 826 826 827 827 827 828 830 832 834 836 838 840 841 841 842 843 844 844 844 843 844 845 845 846 847 847 848 848 849 850 852 853 854 855 856 857 858 859 859 860 861 862 863 864 864 864 863 863 863 862 862 863 863
819 821 822 823 823 824 824 825 826 826 827 828 830 830 830 830 831 834 837 839 840 842 843 843 842 844 845 845 845 845 845 845 845 846 846 847 848 848 849 850 851 852 853 854 856 857 857 857 858 858 859 860 862 862 862 861 860 861 861 860 860 860 861
819 821 823 824 825 826 827 827 827 828 829 830 832 833 833 834 835 837 839 841 842 843 844 845 845 846 847 847 847 847 847 847 847 847 847 848 848 849 850 851 852 852 853 854 855 856 857 857 857 858 858 859 860 860 860 859 859 859 858 858 858 858 858
819 821 823 825 827 829 830 830 830 831 832 833 834 835 836 838 839 839 841 844 846 846 846 846 847 848 848 848 848 848 847 847 848 847 847 848 849 850 851 852 853 853 853 854 855 855 856 856 856 857 857 858 858 858 858 858 858 858 857 856 856 855 856
821 823 825 827 829 830 831 832 832 832 833 834 835 837 838 840 841 841 843 846 847 847 847 848 849 850 849 849 848 848 848 848 848 848 849 850 851 852 852 853 854 854 854 854 854 854 854 854 856 857 858 858 858 857 857 858 858 857 857 856 855 854 854
823 826 827 828 831 832 833 834 834 835 835 835 837 838 839 841 842 843 845 846 847 848 848 849 851 851 851 850 850 850 851 851 851 851 851 852 852 853 854 855 855 855 855 855 854 853 853 854 856 858 858 859 858 857 857 857 857 857 856 855 854 853 852
825 827 828 830 832 833 834 835 836 838 838 838 839 840 841 843 844 845 846 848 848 849 850 851 852 852 853 853 853 853 854 854 854 854 853 853 854 854 854 855 855 855 855 855 854 853 854 856 857 858 859 860 860 858 857 857 856 856 855 855 854 853 852
826 828 830 831 832 834 836 837 838 839 840 840 840 842 843 844 845 846 848 849 849 850 851 852 853 853 853 854 854 855 855 855 855 856 855 855 855 855 855 855 855 855 855 856 856 856 858 859 859 859 860 861 860 859 858 857 857 856 855 855 854 852 851
827 829 831 832 834 835 837 839 840 840 841 842 843 844 845 845 847 848 849 850 851 852 853 853 854 854 854 854 855 855 856 856 857 857 857 857 856 856 856 857 857 858 858 859 859 860 861 862 862 861 861 860 859 858 858 857 856 855 854 853 852 851 850
828 830 832 833 835 837 838 840 842 842 843 845 845 846 847 847 848 850 851 852 853 854 854 855 855 855 855 856 856 857 857 857 858 858 858 858 858 858 858 859 859 860 861 862 862 862 863 862 862 861 860 859 857 856 855 855 854 853 852 852 851 851 850
830 831 833 835 836 838 839 841 843 844 846 847 847 848 849 849 849 851 852 853 854 855 855 856 856 856 857 857 857 858 858 859 859 859 859 859 859 859 860 860 861 861 862 862 862 862 862 861 860 859 858 857 856 855 854 854 853 853 853 852 852 851 850
830 832 834 836 838 839 840 842 844 845 847 848 848 849 849 850 851 851 852 854 854 855 856 856 856 857 857 858 858 858 859 859 859 859 859 859 860 860 860 861 861 862 862 862 861 861 860 860 859 858 857 857 856 856 855 855 854 854 853 853 852 851 850
828 831 833 836 838 839 841 842 843 845 847 848 849 849 850 850 851 852 853 854 855 855 856 856 856 857 857 857 858 858 858 859 859 859 859 859 860 860 860 861 861 861 861 861 861 860 860 859 858 858 857 857 857 857 857 856 856 855 855 854 853 853 852
827 830 832 835 838 839 840 842 843 845 846 848 849 849 850 851 852 852 854 854 855 856 856 856 856 856 857 857 857 857 858 858 858 859 859 859 860 860 860 860 861 860 861 860 860 860 860 859 859 859 858 858 858 858 858 858 857 857 856 856 855 855 855
828 830 832 835 837 839 841 843 844 846 847 848 849 850 851 852 852 853 854 854 855 856 856 856 857 857 857 858 857 857 857 857 858 858 858 859 859 860 860 861 861 861 861 861 861 860 860 860 860 859 859 859 859 859 859 859 859 859 858 858 857 857 857
833 833 833 835 837 839 842 844 846 848 849 850 851 851 852 852 853 854 855 855 856 856 857 857 858 858 859 859 859 859 859 858 858 858 858 859 860 860 860 861 861 861 862 861 861 861 861 861 860 860 860 860 860 860 860 860 860 860 859 859 858 858 858
837 836 836 837 839 841 842 844 846 848 850 851 852 852 853 854 854 855 856 857 857 857 858 858 859 859 860 860 860 860 860 859 859 859 859 860 860 861 861 861 861 862 862 862 862 861 861 861 861 861 861 861 861 861 861 861 861 860 860 859 859 859 858
837 835 835 838 841 843 844 845 848 849 851 851 852 853 853 854 855 856 857 857 858 859 859 859 860 860 860 861 861 861 861 861 861 860 860 860 860 861 861 862 862 862 862 862 862 861 861 861 861 861 861 861 861 861 861 861 861 860 860 860 859 859 859
837 836 835 837 841 844 844 846 848 850 850 851 852 853 853 854 855 856 857 858 859 859 860 860 860 860 860 861 861 862 862 862 861 861 861 861 861 861 861 861 862 862 862 862 862 861 861 861 861 861 861 861 862 862 862 861 861 861 860 860 859 859 859